Weather History for KFBL - July, 2013

Change the Weather History Date:

Friday, July 5, 2013

  Actual Average Record
Temperature  
Mean Temperature 76 °F -  
Max Temperature 87 °F 83 °F 98 °F (1948)
Min Temperature 66 °F 58 °F 39 °F (1967)
Cooling Degree Days 12    
Growing Degree Days 26 (Base 50)    
Moisture  
Dew Point 62 °F    
Average Humidity 61    
Maximum Humidity 78    
Minimum Humidity 43    
Precipitation  
Precipitation 0.00 in - - ()
Sea Level Pressure  
Sea Level Pressure 29.90 in    
Wind  
Wind Speed 10 mph (SSE)    
Max Wind Speed 17 mph    
Max Gust Speed 26 mph    
Visibility 10 miles    
Events Rain    
Averages and records for this station are not official NWS values.
T = Trace of Precipitation, MM = Missing Value Source: NWS Daily Summary

Daily Weather History Graph

Daily Weather History Graph

Search for Another Location

Airport or City:

Trip Planner

Search our weather history database for the weather conditions in past years. The results will help you decide how hot, cold, wet, or windy it might be!

Date:

Astronomy

Jul. 05, 2013 Rise Set
Actual Time 5:35 AM CDT 8:59 PM CDT
Civil Twilight 4:59 AM CDT 9:36 PM CDT
Nautical Twilight 4:12 AM CDT 10:23 PM CDT
Astronomical Twilight 3:12 AM CDT 11:22 PM CDT
Moon 3:37 AM CDT (7/5) 6:53 PM CDT (7/5)
Length of Visible Light 16h 36m
Length of Day
15h 24m
Waning Crescent, 6% of the Moon is Illuminated
Jul 5
Waning Crescent
Jul 8
New
Jul 15
First Quarter
Jul 22
Full
Jul 29
Last Quarter

Hourly Weather History & Observations

Time (CDT) Temp. Heat Index Dew Point Humidity Pressure Visibility Wind Dir Wind Speed Gust Speed Precip Events Conditions
12:14 AM 71.6 °F - 60.8 °F 69% 29.94 in 10.0 mi South 5.8 mph - N/A   Clear
12:34 AM 71.6 °F - 60.8 °F 69% 29.94 in 10.0 mi SSE 8.1 mph - N/A   Clear
12:54 AM 71.6 °F - 60.8 °F 69% 29.94 in 10.0 mi South 9.2 mph - N/A   Clear
1:14 AM 71.6 °F - 60.8 °F 69% 29.94 in 10.0 mi South 10.4 mph - N/A   Clear
1:34 AM 71.6 °F - 60.8 °F 69% 29.94 in 10.0 mi South 6.9 mph - N/A   Clear
1:54 AM 71.6 °F - 60.8 °F 69% 29.94 in 10.0 mi South 8.1 mph - N/A   Clear
2:14 AM 69.8 °F - 60.8 °F 73% 29.94 in 10.0 mi South 6.9 mph - N/A   Clear
2:34 AM 69.8 °F - 60.8 °F 73% 29.93 in 10.0 mi SSE 8.1 mph - N/A   Clear
2:54 AM 69.8 °F - 60.8 °F 73% 29.94 in 10.0 mi South 6.9 mph - N/A   Clear
3:14 AM 68.0 °F - 59.0 °F 73% 29.94 in 10.0 mi SSE 6.9 mph - N/A   Clear
3:34 AM 68.0 °F - 59.0 °F 73% 29.94 in 10.0 mi SSE 6.9 mph - N/A   Clear
3:54 AM 68.0 °F - 59.0 °F 73% 29.94 in 10.0 mi South 6.9 mph - N/A   Clear
4:14 AM 66.2 °F - 59.0 °F 78% 29.94 in 10.0 mi South 8.1 mph - N/A   Clear
4:34 AM 66.2 °F - 59.0 °F 78% 29.94 in 10.0 mi South 8.1 mph - N/A   Clear
4:54 AM 66.2 °F - 59.0 °F 78% 29.94 in 10.0 mi South 9.2 mph - N/A   Clear
5:14 AM 66.2 °F - 59.0 °F 78% 29.94 in 10.0 mi South 9.2 mph - N/A   Clear
5:34 AM 66.2 °F - 59.0 °F 78% 29.94 in 10.0 mi South 8.1 mph - N/A   Clear
5:54 AM 66.2 °F - 59.0 °F 78% 29.93 in 10.0 mi SSE 9.2 mph - N/A   Clear
6:14 AM 66.2 °F - 59.0 °F 78% 29.93 in 10.0 mi SSE 10.4 mph - N/A   Clear
6:34 AM 66.2 °F - 59.0 °F 78% 29.93 in 10.0 mi South 9.2 mph - N/A   Clear
6:54 AM 66.2 °F - 59.0 °F 78% 29.93 in 10.0 mi South 9.2 mph - N/A   Clear
7:14 AM 68.0 °F - 60.8 °F 78% 29.93 in 10.0 mi SSE 9.2 mph - N/A   Clear
7:34 AM 69.8 °F - 60.8 °F 73% 29.92 in 10.0 mi SSE 10.4 mph - N/A   Clear
7:54 AM 71.6 °F - 60.8 °F 69% 29.93 in 10.0 mi South 9.2 mph - N/A   Clear
8:14 AM 73.4 °F - 60.8 °F 65% 29.93 in 10.0 mi South 11.5 mph - N/A   Scattered Clouds
8:34 AM 71.6 °F - 60.8 °F 69% 29.92 in 10.0 mi SSE 9.2 mph - N/A   Scattered Clouds
8:54 AM 75.2 °F - 62.6 °F 65% 29.92 in 10.0 mi SSE 6.9 mph - N/A   Clear
9:14 AM 77.0 °F - 62.6 °F 61% 29.92 in 10.0 mi SSE 9.2 mph - N/A   Clear
9:34 AM 78.8 °F - 62.6 °F 57% 29.92 in 10.0 mi South 12.7 mph 18.4 mph N/A   Clear
9:54 AM 80.6 °F 81.8 °F 62.6 °F 54% 29.91 in 10.0 mi SSE 13.8 mph 19.6 mph N/A   Clear
10:14 AM 80.6 °F 81.8 °F 62.6 °F 54% 29.90 in 10.0 mi South 11.5 mph 25.3 mph N/A   Clear
10:34 AM 82.4 °F 83.4 °F 62.6 °F 51% 29.90 in 10.0 mi SSE 13.8 mph 23.0 mph N/A   Clear
10:54 AM 82.4 °F 83.4 °F 62.6 °F 51% 29.90 in 10.0 mi SSE 11.5 mph 18.4 mph N/A   Clear
11:14 AM 82.4 °F 83.4 °F 62.6 °F 51% 29.90 in 10.0 mi SSE 13.8 mph 18.4 mph N/A   Clear
11:34 AM 84.2 °F 85.0 °F 62.6 °F 48% 29.90 in 10.0 mi SSE 16.1 mph 21.9 mph N/A   Clear
11:54 AM 84.2 °F 85.0 °F 62.6 °F 48% 29.90 in 10.0 mi SSE 13.8 mph 19.6 mph N/A   Clear
12:14 PM 84.2 °F 85.0 °F 62.6 °F 48% 29.89 in 10.0 mi South 13.8 mph 24.2 mph N/A   Clear
12:34 PM 87.8 °F 88.5 °F 62.6 °F 43% 29.89 in 10.0 mi South 15.0 mph 24.2 mph N/A   Clear
12:54 PM 84.2 °F 85.0 °F 62.6 °F 48% 29.89 in 10.0 mi South 10.4 mph 24.2 mph N/A   Clear
1:14 PM 87.8 °F 88.5 °F 62.6 °F 43% 29.89 in 10.0 mi South 17.3 mph 23.0 mph N/A   Clear
1:34 PM 87.8 °F 88.5 °F 62.6 °F 43% 29.88 in 10.0 mi South 12.7 mph 26.5 mph N/A   Clear
1:54 PM 84.2 °F 85.0 °F 62.6 °F 48% 29.88 in 10.0 mi South 15.0 mph 24.2 mph N/A   Clear
2:13 PM 82.4 °F 83.4 °F 62.6 °F 51% 29.88 in 10.0 mi South 12.7 mph 20.7 mph N/A   Clear
2:34 PM 82.4 °F 83.4 °F 62.6 °F 51% 29.88 in 10.0 mi South 10.4 mph 16.1 mph N/A Rain Light Rain
2:54 PM 82.4 °F 83.4 °F 62.6 °F 51% 29.88 in 10.0 mi South 8.1 mph - N/A   Clear
3:14 PM 82.4 °F 83.4 °F 62.6 °F 51% 29.88 in 10.0 mi South 10.4 mph - N/A   Clear
3:34 PM 82.4 °F 83.9 °F 64.4 °F 54% 29.88 in 10.0 mi South 6.9 mph - N/A   Clear
3:54 PM 82.4 °F 83.4 °F 62.6 °F 51% 29.88 in 10.0 mi South 8.1 mph - N/A   Clear
4:14 PM 82.4 °F 83.4 °F 62.6 °F 51% 29.87 in 10.0 mi South 8.1 mph - N/A   Scattered Clouds
4:34 PM 82.4 °F 83.4 °F 62.6 °F 51% 29.87 in 10.0 mi South 6.9 mph - N/A   Scattered Clouds
4:54 PM 82.4 °F 83.4 °F 62.6 °F 51% 29.87 in 10.0 mi South 9.2 mph - N/A   Scattered Clouds
5:14 PM 84.2 °F 85.6 °F 64.4 °F 51% 29.87 in 10.0 mi SSE 12.7 mph 16.1 mph N/A   Clear
5:34 PM 84.2 °F 85.6 °F 64.4 °F 51% 29.86 in 10.0 mi SSE 11.5 mph 19.6 mph N/A   Clear
5:54 PM 84.2 °F 85.6 °F 64.4 °F 51% 29.86 in 10.0 mi SSE 12.7 mph 23.0 mph N/A   Clear
6:14 PM 84.2 °F 85.6 °F 64.4 °F 51% 29.85 in 10.0 mi North - - N/A   Scattered Clouds
6:34 PM 84.2 °F 85.6 °F 64.4 °F 51% 29.85 in 10.0 mi SSE 12.7 mph - N/A   Clear
6:54 PM 84.2 °F 85.0 °F 62.6 °F 48% 29.85 in 10.0 mi SSE 16.1 mph 24.2 mph N/A   Clear
7:14 PM 82.4 °F 83.9 °F 64.4 °F 54% 29.85 in 10.0 mi SSE 16.1 mph 19.6 mph N/A   Clear
7:34 PM 82.4 °F 83.9 °F 64.4 °F 54% 29.86 in 10.0 mi SSE 15.0 mph 20.7 mph N/A   Clear
7:54 PM 82.4 °F 83.9 °F 64.4 °F 54% 29.86 in 10.0 mi SSE 11.5 mph 17.3 mph N/A   Clear
8:14 PM 80.6 °F 82.3 °F 64.4 °F 58% 29.86 in 10.0 mi SSE 13.8 mph - N/A   Clear
8:34 PM 80.6 °F 82.3 °F 64.4 °F 58% 29.86 in 10.0 mi SSE 12.7 mph 20.7 mph N/A   Clear
8:54 PM 80.6 °F 81.8 °F 62.6 °F 54% 29.86 in 10.0 mi SSE 11.5 mph - N/A   Clear
9:14 PM 78.8 °F - 62.6 °F 57% 29.86 in 10.0 mi SSE 12.7 mph 20.7 mph N/A   Clear
9:34 PM 78.8 °F - 62.6 °F 57% 29.86 in 10.0 mi SSE 13.8 mph 20.7 mph N/A   Clear
9:54 PM 78.8 °F - 62.6 °F 57% 29.87 in 10.0 mi SSE 12.7 mph 20.7 mph N/A   Clear
10:14 PM 77.0 °F - 62.6 °F 61% 29.88 in 10.0 mi SSE 13.8 mph - N/A   Clear
10:34 PM 77.0 °F - 62.6 °F 61% 29.88 in 10.0 mi South 11.5 mph - N/A   Clear
10:54 PM 75.2 °F - 62.6 °F 65% 29.89 in 10.0 mi South 12.7 mph 17.3 mph N/A   Clear
11:14 PM 75.2 °F - 62.6 °F 65% 29.89 in 10.0 mi South 9.2 mph - N/A   Clear
11:34 PM 75.2 °F - 62.6 °F 65% 29.89 in 10.0 mi South 10.4 mph - N/A   Clear
11:54 PM 73.4 °F - 62.6 °F 69% 29.90 in 10.0 mi South 8.1 mph - N/A   Clear